Weather History for Greenwood, SC

Change the Weather History Date:

Tuesday, October 9, 2012

  Actual Average (KAND) Record (KAND)
Temperature  
Mean Temperature 52 °F -  
Max Temperature 59 °F 74 °F 89 °F (2007)
Min Temperature 45 °F 52 °F 30 °F (2000)
Degree Days  
Heating Degree Days 13    
Growing Degree Days 2 (Base 50)    
Moisture  
Dew Point 46 °F    
Average Humidity 85    
Maximum Humidity 97    
Minimum Humidity 64    
Precipitation  
Precipitation 0.00 in - - ()
Sea Level Pressure  
Sea Level Pressure 30.17 in    
Wind  
Wind Speed 4 mph (North)    
Max Wind Speed 7 mph    
Max Gust Speed -    
Visibility 10 miles    
Events      
Averages and records for this station are not official NWS values.
T = Trace of Precipitation, MM = Missing Value Source: NWS Daily Summary

Daily Weather History Graph

Daily Weather History Graph

Search for Another Location

Airport:

Trip Planner

Search our weather history database for the weather conditions in past years. The results will help you decide how hot, cold, wet, or windy it might be!

Date:

Astronomy

Oct. 09, 2012 Rise Set
Actual Time 7:29 AM EDT 7:01 PM EDT
Civil Twilight 7:04 AM EDT 7:26 PM EDT
Nautical Twilight 6:35 AM EDT 7:55 PM EDT
Astronomical Twilight 6:06 AM EDT 8:24 PM EDT
Moon 1:20 AM EDT (10/9) 3:13 PM EDT (10/9)
Length of Visible Light 12h 22m
Length of Day
11h 31m
Last Quarter, 37% of the Moon is Illuminated
Oct 9
Last Quarter
Oct 15
New
Oct 21
First Quarter
Oct 29
Full
Nov 6
Last Quarter

Hourly Weather History & Observations

Time (EDT) Temp. Dew Point Humidity Pressure Visibility Wind Dir Wind Speed Gust Speed Precip Events Conditions
12:56 AM 50.0 °F 46.9 °F 89% 30.17 in 9.0 mi NNE 4.6 mph - N/A   Overcast
1:56 AM 50.0 °F 48.0 °F 93% 30.17 in 6.0 mi North 6.9 mph - N/A   Overcast
2:56 AM 48.9 °F 46.9 °F 93% 30.16 in 10.0 mi North 5.8 mph - N/A   Overcast
3:56 AM 48.9 °F 46.9 °F 93% 30.15 in 10.0 mi North 5.8 mph - N/A   Overcast
4:23 AM 48.2 °F 46.4 °F 93% 30.15 in 10.0 mi North 4.6 mph - N/A   Overcast
4:56 AM 50.0 °F 46.9 °F 89% 30.15 in 10.0 mi North 4.6 mph - N/A   Overcast
5:01 AM 48.2 °F 46.4 °F 93% 30.15 in 10.0 mi NW 3.5 mph - N/A   Overcast
5:48 AM 48.2 °F 46.4 °F 93% 30.15 in 6.0 mi North 4.6 mph - N/A   Overcast
5:56 AM 48.9 °F 46.9 °F 93% 30.15 in 6.0 mi North 3.5 mph - N/A   Overcast
6:34 AM 48.2 °F 46.4 °F 93% 30.17 in 10.0 mi North 4.6 mph - N/A   Overcast
6:47 AM 48.2 °F 46.4 °F 93% 30.17 in 10.0 mi North 3.5 mph - N/A   Overcast
6:56 AM 48.9 °F 46.0 °F 90% 30.18 in 10.0 mi North 5.8 mph - N/A   Overcast
7:12 AM 48.2 °F 46.4 °F 93% 30.18 in 10.0 mi North 3.5 mph - N/A   Overcast
7:21 AM 48.2 °F 46.4 °F 93% 30.19 in 10.0 mi North 3.5 mph - N/A   Overcast
7:56 AM 50.0 °F 46.0 °F 86% 30.19 in 10.0 mi Calm Calm - N/A   Overcast
8:32 AM 50.0 °F 46.4 °F 87% 30.20 in 10.0 mi North 4.6 mph - N/A   Overcast
8:56 AM 50.0 °F 46.9 °F 89% 30.21 in 10.0 mi North 4.6 mph - N/A   Overcast
9:22 AM 51.8 °F 46.4 °F 82% 30.21 in 10.0 mi NNE 4.6 mph - N/A   Overcast
9:37 AM 51.8 °F 46.4 °F 82% 30.21 in 10.0 mi North 4.6 mph - N/A   Overcast
9:56 AM 52.0 °F 46.0 °F 80% 30.21 in 10.0 mi North 4.6 mph - N/A   Overcast
10:19 AM 51.8 °F 46.4 °F 82% 30.21 in 10.0 mi North 6.9 mph - N/A   Overcast
10:56 AM 53.1 °F 46.0 °F 77% 30.21 in 9.0 mi NNE 6.9 mph - N/A   Overcast
11:56 AM 53.1 °F 46.0 °F 77% 30.20 in 10.0 mi Variable 3.5 mph - N/A   Overcast
12:56 PM 55.0 °F 46.0 °F 72% 30.18 in 10.0 mi Variable 4.6 mph - N/A   Overcast
1:56 PM 55.9 °F 46.9 °F 72% 30.16 in 10.0 mi Variable 3.5 mph - N/A   Overcast
2:56 PM 55.9 °F 46.9 °F 72% 30.15 in 10.0 mi NNE 4.6 mph - N/A   Overcast
3:56 PM 57.0 °F 46.9 °F 69% 30.14 in 10.0 mi North 6.9 mph - N/A   Overcast
4:56 PM 59.0 °F 46.9 °F 64% 30.12 in 10.0 mi North 6.9 mph - N/A   Overcast
5:56 PM 57.0 °F 46.9 °F 69% 30.13 in 10.0 mi NE 3.5 mph - N/A   Mostly Cloudy
6:13 PM 57.2 °F 46.4 °F 67% 30.13 in 10.0 mi NNE 4.6 mph - N/A   Scattered Clouds
6:56 PM 53.1 °F 46.9 °F 80% 30.12 in 10.0 mi Calm Calm - N/A   Clear
7:56 PM 50.0 °F 46.9 °F 89% 30.13 in 10.0 mi ENE 4.6 mph - N/A   Clear
8:56 PM 48.0 °F 46.0 °F 93% 30.14 in 10.0 mi Calm Calm - N/A   Clear
9:56 PM 45.0 °F 44.1 °F 97% 30.14 in 10.0 mi Calm Calm - N/A   Clear
10:56 PM 45.0 °F 44.1 °F 97% 30.14 in 10.0 mi Calm Calm - N/A   Clear
11:56 PM 45.0 °F 43.0 °F 93% 30.15 in 10.0 mi Calm Calm - N/A   Clear